This is the latest recevied weather packets stored in our database for station/object KG5WBN. If no packets are shown the sender has not sent any weather packets the latest 10 day(s).
| Time | Temp. | Humidity | Pressure | Rain* | Wind** | Luminosity | Snow |
|---|---|---|---|---|---|---|---|
| 1777489149 | 31.67° C | 41% | 1012.5 hPa | 0 mm | - | 401 W/m² | - |
| 1777488847 | 32.22° C | 40% | 1012.9 hPa | 0 mm | - | 401 W/m² | - |
| 1777488544 | 31.67° C | 39% | 1012.9 hPa | 0 mm | - | 415 W/m² | - |
| 1777488241 | 31.67° C | 40% | 1012.9 hPa | 0 mm | - | 447 W/m² | - |
| 1777487940 | 31.67° C | 41% | 1013.2 hPa | 0 mm | - | 414 W/m² | - |
| 1777487636 | 31.11° C | 41% | 1012.9 hPa | 0 mm | - | 398 W/m² | - |
| 1777487334 | 31.11° C | 41% | 1013.2 hPa | 0 mm | - | 427 W/m² | - |
| 1777487031 | 31.11° C | 40% | 1013.2 hPa | 0 mm | - | 428 W/m² | - |
| 1777486727 | 30.56° C | 42% | 1013.5 hPa | 0 mm | - | 414 W/m² | - |
| 1777486425 | 31.67° C | 40% | 1013.5 hPa | 0 mm | - | 446 W/m² | - |
| 1777486122 | 31.67° C | 40% | 1013.5 hPa | 0 mm | - | 432 W/m² | - |
| 1777485819 | 31.67° C | 41% | 1013.5 hPa | 0 mm | - | 424 W/m² | - |
| 1777485515 | 31.11° C | 42% | 1013.5 hPa | 0 mm | - | 417 W/m² | - |
| 1777485211 | 30.56° C | 42% | 1013.5 hPa | 0 mm | - | 438 W/m² | - |
| 1777484907 | 31.11° C | 40% | 1013.5 hPa | 0 mm | - | 367 W/m² | - |
| 1777484605 | 30.56° C | 42% | 1013.9 hPa | 0 mm | - | 375 W/m² | - |
| 1777484301 | 30.56° C | 42% | 1013.9 hPa | 0 mm | - | 314 W/m² | - |
| 1777483997 | 30.56° C | 43% | 1013.9 hPa | 0 mm | - | 388 W/m² | - |
| 1777483694 | 30° C | 43% | 1013.9 hPa | 0 mm | - | 426 W/m² | - |
| 1777483389 | 31.11° C | 42% | 1014.2 hPa | 0 mm | - | 359 W/m² | - |
| 1777483085 | 31.11° C | 42% | 1014.2 hPa | 0 mm | - | 301 W/m² | - |
| 1777482782 | 31.11° C | 41% | 1014.2 hPa | 0 mm | - | 332 W/m² | - |
| 1777482477 | 30° C | 43% | 1014.2 hPa | 0 mm | - | 365 W/m² | - |
| 1777482175 | 30° C | 43% | 1014.2 hPa | 0 mm | - | 159 W/m² | - |
| 1777481873 | 30.56° C | 43% | 1014.6 hPa | 0 mm | - | 412 W/m² | - |
* Rain latest hour (hover to see other rain measurements)
** Current wind speed in m/s (hover to see current wind gust speed)